Location: downtown San Diego
(32.7310°N, 117.1990°W)
Time: 17:53:34
(UTC-07:00)

Cosmos 1812 - Pass Details

Date: 19 May 2017
Orbit: 520 x 525 km, 82.5° (Epoch: 26 May)

Event Time Altitude Azimuth Distance (km) Brightness Sun altitude
Rises 20:06:26 0° 163° (SSE) 2,641 5.9 -5.1°
Reaches altitude 10° 20:08:45 10° 151° (SSE) 1,757 4.9 -5.5°
Maximum altitude 20:12:06 29° 91° (E) 990 3.7 -6.2°
Drops below altitude 10° 20:15:28 10° 31° (NNE) 1,767 5.4 -6.8°
Sets 20:17:48 0° 20° (NNE) 2,660 6.4 -7.2°
